Location: Holyhead Bay
(53.3667°N, 4.6667°W)
Time: 22:14:49
(UTC+00:00)

Cosmos 1408 Rocket - Pass Details

Date: 15 April 2021
Orbit: 601 x 631 km, 82.6° (Epoch: 16 May)

Event Time Altitude Azimuth Distance (km) Brightness Sun altitude
Rises 22:47:27 0° 347° (NNW) 2,866 8.3 -23.6°
Reaches altitude 10° 22:49:41 10° 346° (NNW) 1,958 7.2 -23.8°
Maximum altitude 22:53:59 74° 262° (W) 633 3.5 -24.0°
Enters shadow 22:54:01 74° 259° (WSW) 633 3.5 -24.0°
